Flag for Germany Weather past 2 weeks in Deggendorf, Bavaria, Germany

Now
60 °F

Passing clouds.


Feels Like: 60 °F
Forecast: 39 / 72 °F
Wind: 2 mph from Southwest

Location: Straubing

Current Time: Aug 27, 2014 at 9:59:24 PM

Latest Report: Aug 27, 2014 at 9:00 PM


Visibility: 38 mi

Pressure: 30.07 "Hg

Humidity: 75%

Dew point: 53 °F

Location of DeggendorfLocation

Historic Weather in Deggendorf — Graph

°F

Deggendorf temperature yesterday

Maximum temperature yesterday: 69 °F (at 3:00 PM)
Minimum temperature yesterday: 53 °F (at 5:00 AM)
Average temperature yesterday: 59 °F

Past Weeks' High & Low Weather Summary

 TemperatureHumidityPressure
High71 °F (Aug 17, 6:00 PM)98% (Aug 26, 10:00 PM)30.17 "Hg (Aug 26, 10:00 PM)
Low41 °F (Aug 25, 6:00 AM)31% (Aug 21, 6:00 PM)29.68 "Hg (Aug 13, 5:00 PM)
Average59 °F74%29.96 "Hg
* Reported Aug 12 8:00 PM — Aug 27 8:00 PM, Deggendorf, Weather by CustomWeather, © 2014

Note: Actual official high and low records may vary slightly from our data, if they occured in-between our weather recording intervals... More about our weather records

Advertising

Deggendorf weather history for previous 24 hours

 ConditionsComfort  
Time TempWeatherWind HumidityBarometerVisibility
8:00 PM
Aug 27
61 °FPassing clouds.1 mph74%30.04 "Hg31 mi
7:00 PM63 °FOvercast.1 mph67%30.03 "Hg37 mi
6:00 PM66 °FPartly sunny.2 mph50%30.01 "Hg40 mi
4:00 PM66 °FScattered clouds.2 mph49%30.00 "Hg43 mi
3:00 PM64 °FScattered clouds.3 mph56%29.99 "Hg40 mi
2:00 PM64 °FPassing clouds.5 mph61%29.98 "Hg18 mi
1:00 PM62 °FSunny.5 mph64%29.98 "Hg28 mi
12:00 PM59 °FOvercast.6 mph76%29.97 "Hg43 mi
10:00 AM56 °FLight rain. Overcast.5 mph85%29.91 "Hg25 mi
9:00 AM55 °FDrizzle. Overcast.2 mph90%29.89 "Hg43 mi
8:00 AM56 °FRain. Overcast.3 mph92%29.85 "Hg3 mi
7:00 AM58 °FRain. Overcast.6 mph93%29.80 "Hg3 mi
6:00 AM58 °FPassing clouds.3 mph91%29.79 "Hg25 mi
5:00 AM58 °FOvercast.3 mph92%29.78 "Hg40 mi
4:00 AM57 °FOvercast.1 mph96%29.77 "Hg40 mi
3:00 AM58 °FLight rain. Overcast.2 mph96%29.78 "Hg28 mi
2:00 AM59 °FLight rain. Overcast.3 mph93%29.77 "Hg43 mi
1:00 AM58 °FLight rain. Overcast.2 mph95%29.76 "Hg12 mi
12:00 AM59 °FLight rain. Low clouds.3 mph96%29.76 "Hg19 mi
10:00 PM
Aug 26
60 °FRain. Fog.2 mph98%29.75 "Hg2 mi
9:00 PM60 °FLow clouds.2 mph95%29.74 "Hg19 mi
Weather by CustomWeather, © 2014

See weather overviewHow to use our weather pages